When you browse on this site, cookies collect data to enhance your experience and personalize the content and advertising you see.
Visit our Privacy Policy to learn more. By continuing to use the site, you agree to this use of cookies and data.

Stündliche Wetter Giumri

Heute, 12 August, Mittwoch

Zeit Temperatur Niederschläge Wind Luftdruck Luftfeuchtigkeit
00:00 +16°C° 0 mm 2 m/S 633 mmHg 84%
01:00 +15°C° 0 mm 2 m/S 633 mmHg 84%
02:00 +15°C° 0 mm 2 m/S 633 mmHg 85%
03:00 +15°C° 0 mm 2 m/S 633 mmHg 85%
04:00 +15°C° 0 mm 2 m/S 633 mmHg 85%
05:00 +15°C° 0 mm 2 m/S 633 mmHg 84%
06:00 +15°C° 0 mm 2 m/S 634 mmHg 84%
07:00 +17°C° 0 mm 2 m/S 634 mmHg 78%
08:00 +19°C° 0 mm 2 m/S 634 mmHg 71%
09:00 +20°C° 0 mm 3 m/S 635 mmHg 64%
10:00 +22°C° 0 mm 3 m/S 635 mmHg 59%
11:00 +24°C° 0 mm 3 m/S 636 mmHg 54%
12:00 +25°C° 0 mm 3 m/S 636 mmHg 50%
13:00 +26°C° 0.1 mm 3 m/S 636 mmHg 49%
14:00 +26°C° 0.1 mm 3 m/S 635 mmHg 48%
15:00 +26°C° 0.1 mm 3 m/S 635 mmHg 48%
16:00 +25°C° 0 mm 3 m/S 635 mmHg 52%
17:00 +25°C° 0 mm 4 m/S 635 mmHg 56%
18:00 +23°C° 0 mm 4 m/S 635 mmHg 60%
19:00 +21°C° 0 mm 4 m/S 634 mmHg 66%
20:00 +19°C° 0 mm 3 m/S 634 mmHg 72%
21:00 +18°C° 0 mm 3 m/S 634 mmHg 78%
22:00 +17°C° 0 mm 3 m/S 634 mmHg 79%
23:00 +17°C° 0 mm 3 m/S 634 mmHg 80%

Morgen, 13 August, Donnerstag

Zeit Temperatur Niederschläge Wind Luftdruck Luftfeuchtigkeit
00:00 +16°C° 0 mm 2 m/S 634 mmHg 81%
01:00 +16°C° 0 mm 2 m/S 634 mmHg 82%
02:00 +16°C° 0 mm 2 m/S 633 mmHg 82%
03:00 +15°C° 0 mm 2 m/S 633 mmHg 83%
04:00 +15°C° 0 mm 2 m/S 633 mmHg 83%
05:00 +15°C° 0 mm 2 m/S 633 mmHg 84%
06:00 +16°C° 0 mm 2 m/S 633 mmHg 84%
07:00 +17°C° 0.3 mm 2 m/S 634 mmHg 80%
08:00 +18°C° 0.3 mm 2 m/S 634 mmHg 77%
09:00 +19°C° 0.3 mm 2 m/S 634 mmHg 73%
10:00 +20°C° 0.5 mm 2 m/S 634 mmHg 69%
11:00 +21°C° 0.5 mm 2 m/S 634 mmHg 66%
12:00 +23°C° 0.5 mm 2 m/S 634 mmHg 62%
13:00 +24°C° 0.6 mm 2 m/S 634 mmHg 59%
14:00 +25°C° 0.6 mm 2 m/S 634 mmHg 56%
15:00 +25°C° 0.6 mm 3 m/S 634 mmHg 53%
16:00 +25°C° 0.7 mm 3 m/S 634 mmHg 57%
17:00 +24°C° 0.7 mm 3 m/S 634 mmHg 61%
18:00 +22°C° 0.7 mm 4 m/S 633 mmHg 65%
19:00 +20°C° 0.1 mm 4 m/S 633 mmHg 70%
20:00 +19°C° 0.1 mm 3 m/S 633 mmHg 76%
21:00 +17°C° 0.1 mm 3 m/S 633 mmHg 81%
22:00 +17°C° 0 mm 3 m/S 633 mmHg 82%
23:00 +16°C° 0 mm 3 m/S 633 mmHg 83%

übermorgen, 14 August, Freitag

Zeit Temperatur Niederschläge Wind Luftdruck Luftfeuchtigkeit
00:00 +16°C° 0 mm 3 m/S 633 mmHg 83%
01:00 +14°C° 0 mm 3 m/S 633 mmHg 84%
02:00 +15°C° 0 mm 2 m/S 633 mmHg 85%
03:00 +14°C° 0 mm 2 m/S 633 mmHg 86%
04:00 +14°C° 0 mm 2 m/S 633 mmHg 85%
05:00 +14°C° 0 mm 2 m/S 633 mmHg 85%
06:00 +14°C° 0 mm 2 m/S 633 mmHg 85%
07:00 +16°C° 0 mm 2 m/S 633 mmHg 77%
08:00 +18°C° 0 mm 2 m/S 633 mmHg 69%
09:00 +20°C° 0 mm 2 m/S 634 mmHg 62%
10:00 +21°C° 0.1 mm 3 m/S 634 mmHg 58%
11:00 +22°C° 0.1 mm 3 m/S 634 mmHg 54%
12:00 +25°C° 0.1 mm 3 m/S 634 mmHg 50%
13:00 +25°C° 0.1 mm 4 m/S 633 mmHg 50%
14:00 +25°C° 0.1 mm 4 m/S 633 mmHg 51%
15:00 +25°C° 0.1 mm 5 m/S 633 mmHg 51%
16:00 +23°C° 0.1 mm 5 m/S 633 mmHg 54%
17:00 +22°C° 0.1 mm 4 m/S 633 mmHg 56%
18:00 +21°C° 0.1 mm 4 m/S 632 mmHg 59%
19:00 +20°C° 0 mm 4 m/S 632 mmHg 64%
20:00 +18°C° 0 mm 4 m/S 633 mmHg 69%
21:00 +17°C° 0 mm 3 m/S 633 mmHg 74%
22:00 +16°C° 0 mm 3 m/S 632 mmHg 76%
23:00 +16°C° 0 mm 3 m/S 632 mmHg 78%

15 August, Samstag

Zeit Temperatur Niederschläge Wind Luftdruck Luftfeuchtigkeit
00:00 +14°C° 0 mm 3 m/S 632 mmHg 80%
01:00 +14°C° 0 mm 3 m/S 632 mmHg 81%
02:00 +13°C° 0 mm 3 m/S 632 mmHg 82%
03:00 +13°C° 0 mm 3 m/S 631 mmHg 83%
04:00 +12°C° 0 mm 3 m/S 631 mmHg 82%
05:00 +13°C° 0 mm 2 m/S 631 mmHg 82%
06:00 +13°C° 0 mm 2 m/S 631 mmHg 81%
07:00 +15°C° 0 mm 2 m/S 632 mmHg 74%
08:00 +17°C° 0 mm 3 m/S 632 mmHg 66%
09:00 +19°C° 0 mm 3 m/S 633 mmHg 59%
10:00 +20°C° 0 mm 3 m/S 633 mmHg 56%
11:00 +21°C° 0 mm 3 m/S 633 mmHg 54%
12:00 +22°C° 0 mm 3 m/S 633 mmHg 51%
13:00 +22°C° 0 mm 4 m/S 633 mmHg 52%
14:00 +22°C° 0 mm 4 m/S 633 mmHg 52%
15:00 +22°C° 0 mm 4 m/S 633 mmHg 53%
16:00 +21°C° 0 mm 4 m/S 633 mmHg 55%
17:00 +21°C° 0 mm 4 m/S 633 mmHg 58%
18:00 +20°C° 0 mm 4 m/S 633 mmHg 60%
19:00 +18°C° 0 mm 4 m/S 633 mmHg 66%
20:00 +17°C° 0 mm 3 m/S 633 mmHg 71%
21:00 +14°C° 0 mm 3 m/S 633 mmHg 77%
22:00 +14°C° 0 mm 3 m/S 633 mmHg 78%
23:00 +13°C° 0 mm 3 m/S 632 mmHg 79%

16 August, Sonntag

Zeit Temperatur Niederschläge Wind Luftdruck Luftfeuchtigkeit
00:00 +13°C° 0 mm 2 m/S 632 mmHg 80%
01:00 +13°C° 0 mm 2 m/S 632 mmHg 81%
02:00 +13°C° 0 mm 2 m/S 632 mmHg 83%
03:00 +12°C° 0 mm 2 m/S 632 mmHg 84%
04:00 +12°C° 0 mm 2 m/S 632 mmHg 84%
05:00 +12°C° 0 mm 2 m/S 632 mmHg 84%
06:00 +12°C° 0 mm 2 m/S 632 mmHg 84%
07:00 +14°C° 0 mm 2 m/S 632 mmHg 77%
08:00 +16°C° 0 mm 2 m/S 633 mmHg 71%
09:00 +18°C° 0 mm 3 m/S 633 mmHg 64%
10:00 +19°C° 0 mm 3 m/S 633 mmHg 61%
11:00 +20°C° 0 mm 3 m/S 633 mmHg 59%
12:00 +21°C° 0 mm 3 m/S 634 mmHg 57%
13:00 +22°C° 0.1 mm 3 m/S 633 mmHg 58%
14:00 +22°C° 0.1 mm 3 m/S 633 mmHg 59%
15:00 +22°C° 0.1 mm 3 m/S 633 mmHg 60%
16:00 +20°C° 0.3 mm 4 m/S 632 mmHg 65%
17:00 +19°C° 0.3 mm 4 m/S 632 mmHg 69%
18:00 +18°C° 0.3 mm 4 m/S 632 mmHg 73%
19:00 +17°C° 0.3 mm 4 m/S 632 mmHg 77%
20:00 +16°C° 0.3 mm 3 m/S 632 mmHg 81%
21:00 +14°C° 0.3 mm 3 m/S 632 mmHg 86%
22:00 +14°C° 0.2 mm 3 m/S 632 mmHg 86%
23:00 +14°C° 0.2 mm 2 m/S 632 mmHg 87%

17 August, Montag

Zeit Temperatur Niederschläge Wind Luftdruck Luftfeuchtigkeit
00:00 +14°C° 0.2 mm 2 m/S 632 mmHg 88%
01:00 +14°C° 0.1 mm 2 m/S 632 mmHg 88%
02:00 +14°C° 0.1 mm 2 m/S 632 mmHg 88%
03:00 +14°C° 0.1 mm 2 m/S 632 mmHg 89%
04:00 +14°C° 0.1 mm 2 m/S 632 mmHg 88%
05:00 +14°C° 0.1 mm 2 m/S 632 mmHg 87%
06:00 +14°C° 0.1 mm 2 m/S 632 mmHg 86%
07:00 +15°C° 0 mm 2 m/S 632 mmHg 84%
08:00 +14°C° 0 mm 3 m/S 633 mmHg 81%
09:00 +16°C° 0 mm 3 m/S 633 mmHg 78%
10:00 +17°C° 0.1 mm 3 m/S 633 mmHg 76%
11:00 +17°C° 0.1 mm 3 m/S 633 mmHg 73%
12:00 +18°C° 0.1 mm 4 m/S 633 mmHg 71%
13:00 +18°C° 0.2 mm 4 m/S 633 mmHg 69%
14:00 +19°C° 0.2 mm 4 m/S 633 mmHg 67%
15:00 +19°C° 0.2 mm 4 m/S 633 mmHg 66%
16:00 +18°C° 0.1 mm 4 m/S 633 mmHg 68%
17:00 +18°C° 0.1 mm 4 m/S 633 mmHg 70%
18:00 +17°C° 0.1 mm 4 m/S 633 mmHg 72%
19:00 +15°C° 0.1 mm 4 m/S 633 mmHg 75%
20:00 +14°C° 0.1 mm 4 m/S 633 mmHg 79%
21:00 +13°C° 0.1 mm 4 m/S 633 mmHg 83%
22:00 +12°C° 0.1 mm 3 m/S 633 mmHg 84%
23:00 +12°C° 0.1 mm 3 m/S 633 mmHg 85%
Mehr zeigen